Track COSMOS 2522 (GLONASS) now! COSMOS 2522 (GLONASS) is classified as:
1 42939U 17055A 23080.41760972 .00000005 00000-0 00000-0 0 9999 2 42939 64.1201 232.3133 0005326 235.1925 304.9711 2.13101901 42754